GW2741 Weather Reports


time (UTC)temp
C
wind
direction
speed
KPH
gust
KPH
rain 1hr
cm
rain 24hr
cm
rain mn
cm
humidity
%
barometer
mb
20260831170333 16 308 6.4 9.7 0.00 0.15 0.13 59 1011.8
20260831165433 16 322 6.4 9.7 0.00 0.15 0.13 59 1011.6
20260831164533 15 298 6.4 14.5 0.00 0.15 0.13 58 1011.7
20260831163633 15 309 8.0 12.9 0.00 0.15 0.13 57 1011.7
20260831162733 15 293 8.0 14.5 0.00 0.15 0.13 56 1011.7
20260831161833 15 288 8.0 12.9 0.00 0.15 0.13 57 1011.6
20260831160933 16 314 8.0 14.5 0.00 0.15 0.13 58 1011.5
20260831160033 15 325 9.7 14.5 0.00 0.15 0.13 59 1011.5
20260831154233 15 355 11.3 24.1 0.00 0.20 0.13 59 1011.2
20260831153335 15 321 12.9 24.1 0.00 0.20 0.13 59 1011.4
20260831152433 15 302 11.3 19.3 0.00 0.20 0.13 59 1011.4
20260831150633 15 312 11.3 20.9 0.00 0.20 0.13 58 1011.1
20260831144833 16 319 12.9 24.1 0.00 0.20 0.13 54 1011.2
20260831143934 16 301 12.9 24.1 0.00 0.20 0.13 54 1010.7
20260831143033 16 325 12.9 24.1 0.00 0.20 0.13 53 1010.8
20260831142133 16 325 11.3 24.1 0.00 0.20 0.13 54 1010.7
20260831141235 16 329 11.3 24.1 0.00 0.20 0.13 54 1010.7
20260831140333 16 346 9.7 17.7 0.00 0.20 0.13 53 1010.5
20260831134533 16 305 9.7 20.9 0.00 0.20 0.13 54 1010.4
20260831133633 16 318 11.3 20.9 0.00 0.20 0.13 53 1010.5
20260831132733 17 349 9.7 17.7 0.00 0.20 0.13 53 1010.2
20260831131833 17 340 9.7 17.7 0.00 0.20 0.13 54 1010.0
20260831130933 17 319 12.9 24.1 0.00 0.20 0.13 52 1010.1
20260831130033 17 320 11.3 20.9 0.00 0.20 0.13 58 1009.9
20260831125135 17 343 11.3 20.9 0.00 0.20 0.13 59 1009.8
20260831121533 16 314 11.3 22.5 0.00 0.20 0.13 57 1009.6
20260831120633 16 311 12.9 24.1 0.00 0.20 0.13 55 1009.4
20260831115734 17 337 12.9 29.0 0.00 0.20 0.13 56 1009.2
20260831114833 16 354 14.5 22.5 0.00 0.20 0.13 56 1009.0
20260831113933 16 323 12.9 35.4 0.00 0.20 0.13 56 1009.1
20260831113033 17 313 12.9 35.4 0.00 0.20 0.13 57 1008.8
20260831112133 17 337 14.5 29.0 0.00 0.20 0.13 59 1008.9
20260831111233 17 334 12.9 24.1 0.00 0.20 0.13 61 1008.6
20260831110335 16 340 12.9 24.1 0.00 0.20 0.13 65 1008.7
20260831105434 16 346 12.9 24.1 0.00 0.20 0.13 68 1008.5
20260831103634 15 344 8.0 16.1 0.00 0.20 0.13 70 1008.3
20260831102733 14 330 12.9 30.6 0.00 0.20 0.13 68 1008.4
20260831101834 14 338 14.5 37.0 0.00 0.20 0.13 68 1008.1
20260831100934 15 336 11.3 19.3 0.00 0.20 0.13 69 1008.0
20260831095134 14 324 12.9 22.5 0.00 0.20 0.13 69 1007.8
20260831092433 16 319 12.9 25.7 0.00 0.20 0.13 71 1007.4
20260831091534 16 324 14.5 27.4 0.00 0.20 0.13 74 1007.3
20260831090633 15 348 14.5 30.6 0.00 0.20 0.13 76 1007.1
20260831085734 15 350 17.7 37.0 0.00 0.20 0.13 80 1006.8
20260831083934 15 311 14.5 25.7 0.00 0.20 0.13 82 1006.6
20260831083034 14 317 16.1 27.4 0.00 0.20 0.13 83 1006.8
20260831081233 14 296 16.1 30.6 0.00 0.20 0.13 84 1006.1
20260831080333 14 353 14.5 27.4 0.03 0.20 0.13 85 1006.3
20260831075434 13 325 12.9 27.4 0.03 0.20 0.13 85 1006.0
20260831074534 13 319 9.7 20.9 0.03 0.20 0.13 85 1005.7
20260831073633 14 329 12.9 22.5 0.03 0.20 0.13 85 1005.7
20260831072733 14 331 16.1 27.4 0.03 0.20 0.13 86 1005.4
20260831071834 14 284 12.9 24.1 0.03 0.20 0.13 86 1005.2
20260831070934 14 268 11.3 24.1 0.00 0.18 0.10 87 1005.4
20260831070034 15 309 9.7 17.7 0.00 0.18 0.10 89 1004.9
20260831065134 15 318 11.3 24.1 0.00 0.18 0.10 90 1004.9
20260831064233 14 311 11.3 17.7 0.00 0.18 0.10 90 1004.7
20260831063333 14 321 12.9 24.1 0.00 0.18 0.10 90 1004.5
20260831062435 14 302 12.9 24.1 0.00 0.18 0.10 90 1004.7
20260831061534 14 297 11.3 22.5 0.00 0.18 0.10 90 1004.4
20260831060634 14 311 11.3 19.3 0.03 0.18 0.10 91 1004.4
20260831055733 14 289 11.3 19.3 0.03 0.18 0.10 91 1004.4
20260831053034 14 286 12.9 25.7 0.03 0.18 0.10 91 1003.9
20260831052134 14 295 11.3 20.9 0.03 0.18 0.10 91 1003.7
20260831051234 14 309 11.3 24.1 0.03 0.18 0.10 91 1003.5
20260831050334 14 272 9.7 22.5 0.00 0.15 0.05 91 1003.4
20260831045434 15 299 9.7 17.7 0.00 0.15 0.05 91 1003.4
20260831044534 15 330 9.7 19.3 0.00 0.15 0.05 91 1003.5
20260831042733 14 4 6.4 12.9 0.00 0.15 0.05 91 1003.1
20260831041834 14 335 8.0 14.5 0.00 0.15 0.05 91 1002.9
20260831040934 14 330 8.0 17.7 0.00 0.18 0.05 91 1002.9
20260831035134 15 342 6.4 11.3 0.00 0.20 0.05 91 1002.6
20260831034234 15 340 4.8 14.5 0.00 0.28 0.05 91 1002.4
20260831033335 15 353 4.8 9.7 0.00 0.36 0.05 91 1002.6
20260831032434 15 331 6.4 12.9 0.00 0.43 0.05 91 1002.4
20260831030634 15 352 8.0 17.7 0.03 0.51 0.05 90 1002.1
20260831023934 15 304 6.4 12.9 0.05 0.61 0.05 90 1002.0
20260831023035 15 318 6.4 12.9 0.05 0.61 0.05 90 1002.0
20260831022135 15 340 6.4 12.9 0.05 0.61 0.05 90 1001.9
20260831021234 15 320 4.8 11.3 0.05 0.64 0.05 90 1001.8
20260831015434 15 302 4.8 12.9 0.00 0.61 0.00 90 1001.7
20260831014534 14 335 4.8 12.9 0.00 0.61 0.00 89 1001.4
20260831013634 14 344 6.4 11.3 0.00 0.61 0.00 89 1001.2
20260831012734 15 334 6.4 11.3 0.00 0.61 0.00 89 1001.4
20260831011834 15 352 6.4 9.7 0.00 0.61 0.00 89 1001.2
20260831010934 15 330 6.4 12.9 0.00 0.61 0.00 89 1001.3
20260831005134 15 328 4.8 12.9 0.00 0.61 0.00 89 1001.1
20260831004234 15 345 3.2 6.4 0.00 0.61 0.00 88 1001.1
20260831003334 15 330 3.2 9.7 0.00 0.61 0.00 88 1001.1
20260831001534 15 293 1.6 3.2 0.00 0.61 0.00 88 1000.9
20260831000634 15 326 1.6 3.2 0.00 0.61 0.00 87 1000.9
20260830235734 15 329 0.0 3.2 0.00 0.61 0.00 87 1000.7
20260830234834 15 339 0.0 3.2 0.00 0.61 0.00 87 1000.7
20260830233934 15 337 1.6 3.2 0.00 0.61 0.00 87 1000.6
20260830233034 15 320 1.6 4.8 0.00 0.61 0.00 87 1000.6
20260830232135 14 349 1.6 3.2 0.00 0.61 0.00 86 1000.4
20260830231235 14 46 1.6 3.2 0.00 0.61 0.00 86 1000.4
20260830230334 15 25 1.6 4.8 0.00 0.61 0.00 86 1000.4
20260830225434 15 334 1.6 4.8 0.00 0.61 0.61 86 1000.6
20260830224535 15 25 3.2 6.4 0.00 0.61 0.61 86 1000.3
20260830223634 15 42 3.2 6.4 0.00 0.61 0.61 85 999.9
20260830222734 15 30 3.2 8.0 0.00 0.61 0.61 85 1000.2
20260830221834 15 50 3.2 6.4 0.00 0.61 0.61 85 1000.1
20260830220934 15 31 3.2 6.4 0.00 0.61 0.61 85 1000.1
20260830220034 15 31 4.8 9.7 0.00 0.61 0.61 84 999.8
20260830215134 14 53 1.6 6.4 0.00 0.64 0.61 83 999.7
20260830213334 13 338 1.6 4.8 0.00 0.64 0.61 82 999.7
20260830212434 13 347 3.2 4.8 0.00 0.64 0.61 82 999.3
20260830211534 13 349 1.6 4.8 0.00 0.66 0.61 82 999.1
20260830210634 13 270 0.0 1.6 0.00 0.66 0.61 82 999.2
20260830204834 14 326 1.6 3.2 0.00 0.69 0.61 81 999.1
20260830203934 14 40 0.0 3.2 0.00 0.69 0.61 81 998.8
20260830203034 14 45 0.0 3.2 0.00 0.71 0.61 81 999.2
20260830202134 15 135 0.0 3.2 0.00 0.71 0.61 81 999.1
20260830201234 15 318 1.6 3.2 0.00 0.76 0.61 81 999.0
20260830200334 15 49 1.6 3.2 0.00 0.79 0.61 81 999.1
20260830195434 15 69 1.6 3.2 0.00 0.79 0.61 80 999.0
20260830194535 15 69 1.6 3.2 0.00 0.81 0.61 80 999.0
20260830193634 15 62 1.6 4.8 0.00 0.81 0.61 80 998.8
20260830192734 15 91 1.6 3.2 0.00 0.81 0.61 80 998.9
20260830191834 15 98 1.6 4.8 0.00 0.84 0.61 79 998.6
20260830190934 15 111 1.6 6.4 0.00 0.84 0.61 79 998.7
20260830190034 15 156 1.6 4.8 0.00 0.86 0.61 78 998.6
20260830185134 15 145 3.2 8.0 0.00 0.86 0.61 78 998.7
20260830184234 15 120 3.2 6.4 0.00 0.86 0.61 78 998.7
20260830183334 15 116 3.2 6.4 0.00 0.89 0.61 77 998.5
20260830181534 15 111 1.6 4.8 0.03 0.89 0.61 77 998.7
20260830180634 15 120 3.2 6.4 0.03 0.89 0.61 77 998.7
20260830173934 16 117 3.2 6.4 0.03 0.94 0.61 76 998.3
20260830172134 16 158 4.8 8.0 0.03 0.94 0.61 75 998.4
20260830171234 16 163 6.4 11.3 0.00 0.94 0.56 75 998.7